When you browse on this site, cookies collect data to enhance your experience and personalize the content and advertising you see.
Visit our Privacy Policy to learn more. By continuing to use the site, you agree to this use of cookies and data.
  • In Schweiz
  • Länderverzeichnis
  • Für 7 Tage
  • Wassertemperatur
  • Satellitenkarten
  • Wetterkarte
  • Widgets
  • user-avatar
    Anmelden

    Stündliche Wetter Kowalowka

    Heute, 13 Dezember, Donnerstag

    Zeit Temperatur Niederschläge Wind Luftdruck Luftfeuchtigkeit
    00:00 -2°C° 0 mm 2 m/S 753 mmHg 93%
    01:00 +1°C° 0 mm 1 m/S 753 mmHg 91%
    02:00 +1°C° 0.1 mm 1 m/S 753 mmHg 91%
    03:00 +1°C° 0.1 mm 1 m/S 753 mmHg 91%
    04:00 -1°C° 0.1 mm 2 m/S 753 mmHg 91%
    05:00 -1°C° 0.1 mm 2 m/S 753 mmHg 91%
    06:00 -1°C° 0.1 mm 2 m/S 753 mmHg 92%
    07:00 -1°C° 0.1 mm 2 m/S 753 mmHg 92%
    08:00 -1°C° 0 mm 2 m/S 753 mmHg 91%
    09:00 +1°C° 0 mm 2 m/S 752 mmHg 89%
    10:00 +1°C° 0 mm 2 m/S 752 mmHg 87%
    11:00 +1°C° 0 mm 2 m/S 752 mmHg 86%
    12:00 +1°C° 0 mm 2 m/S 752 mmHg 84%
    13:00 +1°C° 0 mm 2 m/S 752 mmHg 82%
    14:00 +1°C° 0 mm 2 m/S 752 mmHg 83%
    15:00 +1°C° 0 mm 2 m/S 752 mmHg 84%
    16:00 -1°C° 0 mm 2 m/S 752 mmHg 85%
    17:00 -1°C° 0 mm 2 m/S 752 mmHg 85%
    18:00 -1°C° 0 mm 2 m/S 752 mmHg 85%
    19:00 -1°C° 0 mm 2 m/S 752 mmHg 84%
    20:00 -1°C° 0 mm 2 m/S 752 mmHg 85%
    21:00 -1°C° 0 mm 2 m/S 753 mmHg 85%
    22:00 -1°C° 0 mm 2 m/S 753 mmHg 85%
    23:00 -1°C° 0 mm 2 m/S 753 mmHg 85%

    Morgen, 14 Dezember, Freitag

    Zeit Temperatur Niederschläge Wind Luftdruck Luftfeuchtigkeit
    00:00 -2°C° 0 mm 2 m/S 753 mmHg 85%
    01:00 -2°C° 0 mm 2 m/S 753 mmHg 84%
    02:00 -2°C° 0 mm 2 m/S 753 mmHg 84%
    03:00 -2°C° 0 mm 2 m/S 753 mmHg 84%
    04:00 -2°C° 0 mm 2 m/S 753 mmHg 84%
    05:00 -2°C° 0 mm 2 m/S 753 mmHg 83%
    06:00 -2°C° 0 mm 2 m/S 754 mmHg 83%
    07:00 -2°C° 0 mm 2 m/S 754 mmHg 83%
    08:00 -2°C° 0 mm 2 m/S 754 mmHg 80%
    09:00 -2°C° 0 mm 3 m/S 754 mmHg 77%
    10:00 -1°C° 0 mm 3 m/S 755 mmHg 74%
    11:00 -1°C° 0 mm 3 m/S 755 mmHg 71%
    12:00 -1°C° 0 mm 2 m/S 755 mmHg 68%
    13:00 -1°C° 0 mm 2 m/S 755 mmHg 66%
    14:00 -1°C° 0 mm 2 m/S 755 mmHg 69%
    15:00 -1°C° 0 mm 2 m/S 755 mmHg 73%
    16:00 -2°C° 0 mm 2 m/S 755 mmHg 76%
    17:00 -2°C° 0 mm 2 m/S 755 mmHg 78%
    18:00 -2°C° 0 mm 2 m/S 755 mmHg 80%
    19:00 -2°C° 0 mm 2 m/S 755 mmHg 82%
    20:00 -2°C° 0 mm 2 m/S 755 mmHg 83%
    21:00 -2°C° 0 mm 2 m/S 756 mmHg 84%
    22:00 -2°C° 0 mm 2 m/S 756 mmHg 85%
    23:00 -2°C° 0 mm 2 m/S 756 mmHg 86%

    übermorgen, 15 Dezember, Samstag

    Zeit Temperatur Niederschläge Wind Luftdruck Luftfeuchtigkeit
    00:00 -2°C° 0 mm 2 m/S 756 mmHg 87%
    01:00 -1°C° 0 mm 3 m/S 756 mmHg 87%
    02:00 -1°C° 0 mm 3 m/S 756 mmHg 87%
    03:00 -1°C° 0 mm 3 m/S 755 mmHg 87%
    04:00 -1°C° 0 mm 3 m/S 755 mmHg 86%
    05:00 -1°C° 0 mm 3 m/S 755 mmHg 84%
    06:00 -1°C° 0 mm 3 m/S 756 mmHg 83%
    07:00 -1°C° 0 mm 3 m/S 756 mmHg 81%
    08:00 -1°C° 0 mm 3 m/S 756 mmHg 78%
    09:00 -1°C° 0 mm 3 m/S 756 mmHg 75%
    10:00 -2°C° 0 mm 4 m/S 756 mmHg 73%
    11:00 -1°C° 0 mm 4 m/S 756 mmHg 70%
    12:00 -1°C° 0 mm 4 m/S 756 mmHg 68%
    13:00 -1°C° 0 mm 4 m/S 755 mmHg 65%
    14:00 -1°C° 0 mm 3 m/S 755 mmHg 68%
    15:00 -1°C° 0 mm 3 m/S 755 mmHg 70%
    16:00 -1°C° 0 mm 3 m/S 755 mmHg 73%
    17:00 -1°C° 0 mm 3 m/S 755 mmHg 74%
    18:00 -2°C° 0 mm 3 m/S 755 mmHg 75%
    19:00 -2°C° 0 mm 3 m/S 755 mmHg 77%
    20:00 -2°C° 0 mm 3 m/S 755 mmHg 78%
    21:00 -2°C° 0 mm 3 m/S 755 mmHg 79%
    22:00 -2°C° 0 mm 3 m/S 755 mmHg 80%
    23:00 -2°C° 0 mm 3 m/S 754 mmHg 80%

    16 Dezember, Sonntag

    Zeit Temperatur Niederschläge Wind Luftdruck Luftfeuchtigkeit
    00:00 -2°C° 0 mm 3 m/S 754 mmHg 79%
    01:00 -2°C° 0 mm 3 m/S 754 mmHg 79%
    02:00 -2°C° 0 mm 3 m/S 753 mmHg 78%
    03:00 -2°C° 0 mm 3 m/S 753 mmHg 77%
    04:00 -2°C° 0 mm 3 m/S 752 mmHg 75%
    05:00 -2°C° 0 mm 3 m/S 752 mmHg 76%
    06:00 -2°C° 0 mm 3 m/S 752 mmHg 77%
    07:00 -2°C° 0 mm 3 m/S 752 mmHg 77%
    08:00 -3°C° 0 mm 4 m/S 752 mmHg 77%
    09:00 -3°C° 0 mm 4 m/S 751 mmHg 76%
    10:00 -3°C° 0 mm 4 m/S 751 mmHg 76%
    11:00 -3°C° 0 mm 4 m/S 751 mmHg 75%
    12:00 -2°C° 0 mm 3 m/S 751 mmHg 73%
    13:00 -1°C° 0 mm 3 m/S 750 mmHg 72%
    14:00 -2°C° 0 mm 2 m/S 750 mmHg 74%
    15:00 -2°C° 0 mm 2 m/S 750 mmHg 75%
    16:00 -2°C° 0 mm 2 m/S 750 mmHg 77%
    17:00 -2°C° 0 mm 2 m/S 750 mmHg 78%
    18:00 -2°C° 0 mm 2 m/S 750 mmHg 80%
    19:00 -2°C° 0 mm 2 m/S 750 mmHg 82%
    20:00 -3°C° 0 mm 2 m/S 750 mmHg 83%
    21:00 -3°C° 0 mm 2 m/S 750 mmHg 83%
    22:00 -3°C° 0 mm 2 m/S 750 mmHg 84%
    23:00 -3°C° 0 mm 2 m/S 750 mmHg 84%

    17 Dezember, Montag

    Zeit Temperatur Niederschläge Wind Luftdruck Luftfeuchtigkeit
    00:00 -3°C° 0 mm 2 m/S 750 mmHg 84%
    01:00 -3°C° 0 mm 2 m/S 750 mmHg 84%
    02:00 -3°C° 0 mm 2 m/S 750 mmHg 83%
    03:00 -3°C° 0 mm 2 m/S 750 mmHg 82%
    04:00 -3°C° 0 mm 2 m/S 750 mmHg 81%
    05:00 -3°C° 0 mm 2 m/S 750 mmHg 79%
    06:00 -3°C° 0 mm 2 m/S 750 mmHg 78%
    07:00 -3°C° 0 mm 2 m/S 750 mmHg 76%
    08:00 -3°C° 0 mm 2 m/S 751 mmHg 73%
    09:00 -2°C° 0 mm 2 m/S 751 mmHg 71%
    10:00 -2°C° 0 mm 2 m/S 751 mmHg 68%
    11:00 -2°C° 0 mm 2 m/S 751 mmHg 67%
    12:00 -1°C° 0 mm 2 m/S 751 mmHg 66%
    13:00 +1°C° 0 mm 1 m/S 751 mmHg 64%
    14:00 +1°C° 0 mm 1 m/S 752 mmHg 67%
    15:00 0°C° 0 mm 1 m/S 752 mmHg 69%
    16:00 0°C° 0 mm 1 m/S 752 mmHg 71%
    17:00 0°C° 0 mm 1 m/S 752 mmHg 72%
    18:00 0°C° 0 mm 1 m/S 753 mmHg 72%
    19:00 0°C° 0 mm 1 m/S 753 mmHg 72%
    20:00 0°C° 0 mm 1 m/S 753 mmHg 74%
    21:00 0°C° 0 mm 1 m/S 753 mmHg 75%
    22:00 0°C° 0 mm 1 m/S 754 mmHg 76%
    23:00 0°C° 0 mm 1 m/S 754 mmHg 78%

    18 Dezember, Dienstag

    Zeit Temperatur Niederschläge Wind Luftdruck Luftfeuchtigkeit
    00:00 0°C° 0 mm 1 m/S 754 mmHg 79%
    01:00 0°C° 0 mm 1 m/S 754 mmHg 81%
    02:00 0°C° 0 mm 1 m/S 754 mmHg 82%
    03:00 0°C° 0 mm 1 m/S 754 mmHg 83%
    04:00 0°C° 0 mm 1 m/S 754 mmHg 85%
    05:00 0°C° 0 mm 1 m/S 754 mmHg 85%
    06:00 -1°C° 0 mm 1 m/S 754 mmHg 86%
    07:00 -1°C° 0 mm 1 m/S 754 mmHg 86%
    08:00 0°C° 0 mm 1 m/S 754 mmHg 85%
    09:00 0°C° 0 mm 1 m/S 754 mmHg 83%
    10:00 0°C° 0 mm 1 m/S 754 mmHg 81%
    11:00 +1°C° 0 mm 1 m/S 754 mmHg 79%
    12:00 +1°C° 0 mm 1 m/S 754 mmHg 77%
    13:00 +2°C° 0 mm 1 m/S 754 mmHg 75%
    14:00 +1°C° 0 mm 1 m/S 754 mmHg 77%
    15:00 +1°C° 0 mm 1 m/S 754 mmHg 80%
    16:00 0°C° 0 mm 1 m/S 753 mmHg 82%
    17:00 0°C° 0 mm 1 m/S 754 mmHg 82%
    18:00 0°C° 0 mm 1 m/S 754 mmHg 83%
    19:00 0°C° 0 mm 1 m/S 754 mmHg 83%
    20:00 0°C° 0 mm 1 m/S 754 mmHg 84%
    21:00 -2°C° 0 mm 2 m/S 754 mmHg 84%
    22:00 -2°C° 0 mm 2 m/S 753 mmHg 84%
    23:00 -2°C° 0 mm 2 m/S 753 mmHg 85%
    Mehr zeigen